This is the latest recevied weather packets stored in our database for station/object DG6YGE-6. If no packets are shown the sender has not sent any weather packets the latest 10 day(s).
| Time | Temp. | Humidity | Pressure | Rain* | Wind** | Luminosity | Snow |
|---|---|---|---|---|---|---|---|
| 1788174553 | 18.89° C | 82% | 1008.4 hPa | 1.78 mm | - | 495 W/m² | - |
| 1788173953 | 18.89° C | 85% | 1008.6 hPa | 1.78 mm | - | 803 W/m² | - |
| 1788173353 | 18.89° C | 85% | 1008.5 hPa | 1.78 mm | - | 503 W/m² | - |
| 1788172753 | 18.89° C | 85% | 1008.5 hPa | 1.78 mm | - | 272 W/m² | - |
| 1788172153 | 18.89° C | 85% | 1008.7 hPa | 1.02 mm | - | 117 W/m² | - |
| 1788171553 | 18.33° C | 85% | 1008.6 hPa | 1.52 mm | - | 100 W/m² | - |
| 1788170953 | 18.33° C | 85% | 1008.7 hPa | 1.78 mm | - | 472 W/m² | - |
| 1788170353 | 18.33° C | 85% | 1008.9 hPa | 1.78 mm | - | 286 W/m² | - |
| 1788169753 | 18.33° C | 85% | 1008.8 hPa | 1.78 mm | - | 630 W/m² | - |
| 1788169153 | 18.33° C | 85% | 1009 hPa | 1.78 mm | - | 282 W/m² | - |
| 1788168566 | 19.44° C | 81% | 1009.1 hPa | 1.78 mm | - | 210 W/m² | - |
| 1788167953 | 19.44° C | 78% | 1009 hPa | 0.25 mm | - | 82 W/m² | - |
| 1788167353 | 19.44° C | 78% | 1009 hPa | 0 mm | - | 290 W/m² | - |
| 1788166754 | 19.44° C | 79% | 1009 hPa | 0 mm | - | 342 W/m² | - |
| 1788166153 | 19.44° C | 77% | 1009 hPa | 0 mm | - | 205 W/m² | - |
| 1788165553 | 19.44° C | 79% | 1009.2 hPa | 0 mm | - | 460 W/m² | - |
| 1788164953 | 19.44° C | 79% | 1009.1 hPa | 0 mm | - | 161 W/m² | - |
| 1788164353 | 18.89° C | 80% | 1009.2 hPa | 0 mm | - | 234 W/m² | - |
| 1788163753 | 19.44° C | 79% | 1009.2 hPa | 0 mm | - | 144 W/m² | - |
| 1788163153 | 19.44° C | 80% | 1009.2 hPa | 0 mm | - | 300 W/m² | - |
| 1788162553 | 18.89° C | 80% | 1009.2 hPa | 0 mm | - | 212 W/m² | - |
| 1788161953 | 18.89° C | 80% | 1009 hPa | 0 mm | - | 143 W/m² | - |
| 1788161353 | 19.44° C | 80% | 1009.1 hPa | 0 mm | - | 179 W/m² | - |
| 1788160753 | 18.89° C | 82% | 1009.1 hPa | 0 mm | - | 329 W/m² | - |
| 1788160153 | 18.33° C | 84% | 1008.9 hPa | 0 mm | - | 285 W/m² | - |
* Rain latest hour (hover to see other rain measurements)
** Current wind speed in m/s (hover to see current wind gust speed)